When you browse on this site, cookies collect data to enhance your experience and personalize the content and advertising you see.
Visit our Privacy Policy to learn more. By continuing to use the site, you agree to this use of cookies and data.
  • In Hungary
  • List of Countries
  • For 7 days
  • Water Temperature
  • Weather Map
  • News
  • Weather Widgets
  • user-avatar
    Login

    Hourly Weather Verhniy Turek

    Today, 17 October, Thursday

    Time Temperature Precipitation Wind Pressure Humidity
    00:00 +1°C° 0 mm 2 mps 758 mmHg 88%
    01:00 +1°C° 0.1 mm 2 mps 758 mmHg 91%
    02:00 +1°C° 0.1 mm 2 mps 758 mmHg 94%
    03:00 0°C° 0 mm 3 mps 758 mmHg 97%
    04:00 0°C° 0.7 mm 3 mps 758 mmHg 97%
    05:00 -1°C° 0.7 mm 4 mps 757 mmHg 97%
    06:00 -1°C° 0.7 mm 5 mps 756 mmHg 97%
    07:00 -1°C° 0.1 mm 5 mps 756 mmHg 94%
    08:00 0°C° 0.1 mm 5 mps 755 mmHg 91%
    09:00 +1°C° 0.1 mm 6 mps 754 mmHg 88%
    10:00 +2°C° 0 mm 6 mps 753 mmHg 84%
    11:00 +3°C° 0 mm 6 mps 753 mmHg 80%
    12:00 +4°C° 0 mm 6 mps 752 mmHg 76%
    13:00 +5°C° 0 mm 5 mps 752 mmHg 78%
    14:00 +5°C° 0 mm 5 mps 751 mmHg 79%
    15:00 +6°C° 0 mm 4 mps 751 mmHg 80%
    16:00 +6°C° 0 mm 4 mps 750 mmHg 83%
    17:00 +6°C° 0 mm 4 mps 750 mmHg 85%
    18:00 +7°C° 0 mm 4 mps 749 mmHg 88%
    19:00 +7°C° 0 mm 4 mps 749 mmHg 90%
    20:00 +7°C° 0 mm 4 mps 749 mmHg 92%
    21:00 +8°C° 0 mm 3 mps 749 mmHg 94%
    22:00 +8°C° 0.2 mm 3 mps 749 mmHg 95%
    23:00 +8°C° 0.2 mm 3 mps 748 mmHg 96%

    Tomorrow, 18 October, Friday

    Time Temperature Precipitation Wind Pressure Humidity
    00:00 +8°C° 0.2 mm 2 mps 748 mmHg 97%
    01:00 +8°C° 0.2 mm 3 mps 748 mmHg 97%
    02:00 +9°C° 0.2 mm 3 mps 748 mmHg 97%
    03:00 +9°C° 0.2 mm 3 mps 748 mmHg 97%
    04:00 +9°C° 0.1 mm 3 mps 747 mmHg 97%
    05:00 +9°C° 0.1 mm 3 mps 747 mmHg 97%
    06:00 +9°C° 0.1 mm 3 mps 746 mmHg 97%
    07:00 +9°C° 0.1 mm 3 mps 746 mmHg 96%
    08:00 +9°C° 0.1 mm 3 mps 746 mmHg 96%
    09:00 +9°C° 0.1 mm 3 mps 746 mmHg 95%
    10:00 +9°C° 0.2 mm 3 mps 746 mmHg 96%
    11:00 +9°C° 0.2 mm 2 mps 746 mmHg 96%
    12:00 +9°C° 0.2 mm 2 mps 746 mmHg 96%
    13:00 +8°C° 1 mm 3 mps 746 mmHg 96%
    14:00 +8°C° 1 mm 3 mps 746 mmHg 96%
    15:00 +6°C° 1 mm 4 mps 747 mmHg 96%
    16:00 +5°C° 0.2 mm 4 mps 747 mmHg 95%
    17:00 +3°C° 0.2 mm 5 mps 748 mmHg 94%
    18:00 +3°C° 0.2 mm 5 mps 748 mmHg 92%
    19:00 +2°C° 0 mm 5 mps 749 mmHg 92%
    20:00 +2°C° 0 mm 5 mps 749 mmHg 91%
    21:00 +1°C° 0 mm 5 mps 750 mmHg 90%
    22:00 +1°C° 0 mm 5 mps 750 mmHg 89%
    23:00 +1°C° 0 mm 4 mps 751 mmHg 88%

    Day after tomorrow, 19 October, Saturday

    Time Temperature Precipitation Wind Pressure Humidity
    00:00 +1°C° 0 mm 4 mps 751 mmHg 87%
    01:00 0°C° 0 mm 4 mps 751 mmHg 87%
    02:00 0°C° 0 mm 4 mps 752 mmHg 87%
    03:00 0°C° 0 mm 4 mps 752 mmHg 88%
    04:00 0°C° 0 mm 3 mps 753 mmHg 88%
    05:00 0°C° 0 mm 3 mps 753 mmHg 89%
    06:00 0°C° 0 mm 3 mps 753 mmHg 90%
    07:00 0°C° 0 mm 3 mps 754 mmHg 89%
    08:00 +1°C° 0 mm 3 mps 754 mmHg 88%
    09:00 +1°C° 0 mm 3 mps 755 mmHg 87%
    10:00 +1°C° 0 mm 3 mps 755 mmHg 85%
    11:00 +2°C° 0 mm 3 mps 756 mmHg 83%
    12:00 +3°C° 0 mm 2 mps 756 mmHg 81%
    13:00 +4°C° 0 mm 2 mps 756 mmHg 80%
    14:00 +4°C° 0 mm 2 mps 756 mmHg 79%
    15:00 +4°C° 0 mm 2 mps 756 mmHg 78%
    16:00 +3°C° 0 mm 2 mps 757 mmHg 79%
    17:00 +3°C° 0 mm 2 mps 757 mmHg 80%
    18:00 +4°C° 0 mm 1 mps 757 mmHg 82%
    19:00 +3°C° 0 mm 1 mps 757 mmHg 81%
    20:00 +3°C° 0 mm 1 mps 758 mmHg 81%
    21:00 +3°C° 0 mm 1 mps 758 mmHg 81%
    22:00 +3°C° 0 mm 1 mps 758 mmHg 82%
    23:00 +3°C° 0 mm 1 mps 758 mmHg 83%

    20 October, Sunday

    Time Temperature Precipitation Wind Pressure Humidity
    00:00 +3°C° 0 mm 1 mps 758 mmHg 84%
    01:00 +2°C° 0 mm 1 mps 758 mmHg 85%
    02:00 +1°C° 0 mm 2 mps 758 mmHg 86%
    03:00 +1°C° 0 mm 2 mps 758 mmHg 87%
    04:00 +1°C° 0 mm 2 mps 758 mmHg 88%
    05:00 +2°C° 0 mm 2 mps 758 mmHg 88%
    06:00 +2°C° 0 mm 2 mps 758 mmHg 89%
    07:00 +1°C° 0 mm 3 mps 758 mmHg 88%
    08:00 +2°C° 0 mm 3 mps 758 mmHg 86%
    09:00 +3°C° 0 mm 3 mps 758 mmHg 85%
    10:00 +3°C° 0 mm 4 mps 758 mmHg 85%
    11:00 +4°C° 0 mm 4 mps 758 mmHg 84%
    12:00 +4°C° 0 mm 4 mps 757 mmHg 84%
    13:00 +5°C° 0 mm 4 mps 757 mmHg 85%
    14:00 +5°C° 0 mm 5 mps 757 mmHg 86%
    15:00 +5°C° 0 mm 5 mps 756 mmHg 88%
    16:00 +5°C° 0.1 mm 5 mps 756 mmHg 89%
    17:00 +6°C° 0.1 mm 5 mps 756 mmHg 89%
    18:00 +6°C° 0.1 mm 5 mps 756 mmHg 90%
    19:00 +6°C° 0 mm 5 mps 755 mmHg 91%
    20:00 +5°C° 0 mm 6 mps 755 mmHg 91%
    21:00 +7°C° 0 mm 6 mps 755 mmHg 92%
    22:00 +7°C° 0 mm 6 mps 754 mmHg 92%
    23:00 +8°C° 0 mm 6 mps 754 mmHg 92%

    21 October, Monday

    Time Temperature Precipitation Wind Pressure Humidity
    00:00 +8°C° 0 mm 5 mps 753 mmHg 92%
    01:00 +8°C° 0 mm 5 mps 753 mmHg 92%
    02:00 +8°C° 0 mm 5 mps 753 mmHg 92%
    03:00 +8°C° 0 mm 5 mps 753 mmHg 93%
    04:00 +8°C° 0 mm 4 mps 753 mmHg 93%
    05:00 +8°C° 0 mm 4 mps 752 mmHg 94%
    06:00 +8°C° 0 mm 4 mps 752 mmHg 94%
    07:00 +8°C° 0 mm 4 mps 752 mmHg 94%
    08:00 +8°C° 0 mm 4 mps 752 mmHg 94%
    09:00 +8°C° 0 mm 4 mps 752 mmHg 94%
    10:00 +10°C° 0 mm 4 mps 752 mmHg 93%
    11:00 +10°C° 0 mm 4 mps 752 mmHg 92%
    12:00 +10°C° 0 mm 4 mps 752 mmHg 91%
    13:00 +11°C° 0 mm 4 mps 751 mmHg 91%
    14:00 +11°C° 0 mm 4 mps 751 mmHg 91%
    15:00 +11°C° 0 mm 4 mps 751 mmHg 91%
    16:00 +11°C° 0 mm 4 mps 750 mmHg 91%
    17:00 +11°C° 0 mm 4 mps 750 mmHg 92%
    18:00 +9°C° 0 mm 5 mps 750 mmHg 92%
    19:00 +10°C° 0 mm 5 mps 749 mmHg 90%
    20:00 +10°C° 0 mm 6 mps 749 mmHg 88%
    21:00 +10°C° 0 mm 6 mps 748 mmHg 86%
    22:00 +10°C° 0 mm 6 mps 748 mmHg 87%
    23:00 +10°C° 0 mm 6 mps 748 mmHg 88%

    22 October, Tuesday

    Time Temperature Precipitation Wind Pressure Humidity
    00:00 +9°C° 0 mm 6 mps 747 mmHg 89%
    01:00 +9°C° 0 mm 6 mps 747 mmHg 90%
    02:00 +9°C° 0 mm 5 mps 747 mmHg 91%
    03:00 +10°C° 0 mm 4 mps 747 mmHg 92%
    04:00 +10°C° 0 mm 4 mps 747 mmHg 92%
    05:00 +10°C° 0 mm 4 mps 748 mmHg 93%
    06:00 +10°C° 0 mm 4 mps 748 mmHg 93%
    07:00 +10°C° 0.1 mm 4 mps 748 mmHg 92%
    08:00 +10°C° 0.1 mm 4 mps 748 mmHg 91%
    09:00 +10°C° 0.1 mm 4 mps 748 mmHg 90%
    10:00 +10°C° 0.2 mm 3 mps 748 mmHg 89%
    11:00 +10°C° 0.2 mm 2 mps 748 mmHg 88%
    12:00 +12°C° 0.2 mm 2 mps 748 mmHg 87%
    13:00 +10°C° 0.1 mm 2 mps 748 mmHg 87%
    14:00 +10°C° 0.1 mm 2 mps 748 mmHg 87%
    15:00 +10°C° 0.1 mm 2 mps 748 mmHg 87%
    16:00 +11°C° 0 mm 1 mps 748 mmHg 88%
    17:00 +10°C° 0 mm 1 mps 748 mmHg 89%
    18:00 +10°C° 0 mm 1 mps 748 mmHg 90%
    19:00 +9°C° 0 mm 0 mps 747 mmHg 91%
    20:00 +9°C° 0 mm 0 mps 747 mmHg 92%
    21:00 +9°C° 0 mm 0 mps 747 mmHg 92%
    22:00 +8°C° 0.5 mm 0 mps 746 mmHg 94%
    23:00 +8°C° 0.5 mm 0 mps 746 mmHg 95%
    Show more